Location: Helds Island Access
(38.5526°N, 91.5997°W)
Time: 17:15:43
(UTC-05:00)

Daily predictions for brighter satellites

Satellite Brightness Start Highest point End
(mag) Time Altitude Azimuth Time Altitude Azimuth Time Altitude Azimuth
Cosmos 1371 Rocket 4.4 20:38:48 10° SSW 20:44:06 71° WNW 20:49:23 10° NNE
Cosmos 1733 Rocket 3.1 20:43:04 10° S 20:47:25 64° E 20:51:46 10° NNE
PSLV R/B 4.1 20:45:51 10° W 20:49:05 40° SSW 20:52:21 10° SE
Cosmos 2082 Rocket 4.2 20:51:41 10° NNE 20:54:19 13° NE 20:56:55 10° ENE
SL-27 R/B 2.5 20:54:26 10° NNW 20:58:05 78° ENE 21:01:39 10° SSE
deb Chang Zheng 4 4.4 20:55:41 10° NE 20:59:37 31° E 21:03:33 10° SSE
CZ-4 DEB 2.8 20:57:34 10° SSE 21:00:42 63° ENE 21:03:50 10° N
CZ-2D R/B 4.2 20:59:55 10° S 21:03:36 48° W 21:07:19 10° NNW
GPS 2-05 Rocket1 3.4 21:00:20 10° WSW 21:03:55 45° S 21:07:26 10° E
Meteor 1-10 Rocket 4.3 20:59:56 10° N 21:05:46 82° E 21:11:27 10° S
Cosmos 2154 Rocket 4.2 21:02:58 10° SSE 21:08:56 51° E 21:14:54 10° NNE
ERBS 4.2 21:06:25 10° WNW 21:09:19 25° SW 21:12:11 10° S
BREEZE-M DEB (TANK) 4.3 21:09:30 10° W 21:11:44 31° NNW 21:15:53 10° NE
YAOGAN 11 4.2 21:08:22 10° SSE 21:12:53 84° ENE 21:17:28 10° NNW
Envisat 3.4 21:09:09 10° SE 21:13:59 47° ENE 21:18:50 10° N
Cosmos 1862 3.7 21:11:01 10° SSE 21:14:54 45° E 21:18:48 10° NNE
SEDSat Delta rocket 4.4 21:11:52 10° SSW 21:14:55 18° SSE 21:16:42 14° SE
Cosmos 2184 Rocket 4.3 21:09:07 10° SSW 21:15:14 71° W 21:21:26 10° N
H-2A R/B 2.5 21:12:33 12° SE 21:16:20 42° ENE 21:20:19 10° N
CZ-3C R/B 4.0 20:42:29 10° WSW 21:16:57 28° SSW 21:23:56 13° SE
APEX 4.3 21:17:59 10° SSE 21:21:14 28° ESE 21:25:16 10° NE
COSMOS 2487 3.3 21:17:56 10° N 21:21:17 35° ENE 21:23:26 18° SE
Cosmos 1606 2.8 21:17:32 10° N 21:21:26 60° E 21:24:55 12° SSE
Cosmos 1420 Rocket 4.4 21:20:08 10° S 21:25:02 41° ESE 21:29:55 10° NNE
ALOS 4.1 21:23:29 10° SSW 21:27:36 31° W 21:31:45 10° NW
ERS-1 Rocket 3.0 21:23:32 10° SSE 21:28:34 84° WSW 21:33:38 10° NNW
BREEZE-M DEB (TANK) 4.3 21:28:59 10° NW 21:30:03 13° NNW 21:31:08 10° NNE
Meteor 1-27 Rocket 3.6 21:26:59 10° N 21:32:33 81° E 21:37:56 11° S
Cosmos 407 Rocket 3.8 21:28:08 10° NNW 21:33:24 68° WSW 21:38:40 10° S
CZ-4 SHROUD 4.5 21:32:35 22° E 21:33:29 25° ENE 21:36:06 10° NNE
PSLV R/B 4.3 21:33:20 23° E 21:34:07 26° ENE 21:36:40 10° NNE
Cosmos 1140 Rocket 3.9 21:31:29 10° N 21:36:27 47° ENE 21:39:36 21° SE
Okean 3 3.6 21:34:16 10° N 21:38:30 57° E 21:41:10 21° SSE
Cosmos 1782 4.0 21:37:21 10° NNW 21:41:10 41° W 21:44:58 10° SSW
USA 234 4.4 21:39:10 10° ENE 21:43:02 19° ESE 21:43:02 19° ESE
Cosmos 1452 Rocket 4.0 21:39:07 10° SSW 21:44:19 65° WNW 21:49:35 10° NNE
H-2A R/B 3.9 21:42:13 14° E 21:44:23 17° ENE 21:47:47 10° NNE
CZ-4B R/B 4.0 21:43:48 10° NNE 21:48:17 35° E 21:50:13 25° SE
Okean 2 Rocket 3.0 21:45:12 15° S 21:48:46 64° E 21:53:09 10° NNE
ARGOS 3.9 21:46:31 22° ESE 21:49:09 36° ENE 21:53:59 10° N
ATLAS 5 CENTAUR R/B 4.1 21:47:16 10° WNW 21:52:20 27° WSW 21:57:36 10° SSW
Cosmos 1184 Rocket 3.1 21:52:57 13° SSW 21:55:51 67° W 21:59:11 10° N
Cosmos 1939 Rocket 3.6 21:52:49 14° S 21:56:00 47° W 21:59:49 10° NNW
OAO 3 Rocket 3.7 21:52:00 10° SW 21:56:37 40° SSE 21:58:14 30° ESE
Cosmos 1242 Rocket 2.6 21:53:17 10° N 21:56:56 59° E 21:58:03 39° SE
YAOGAN 6 2.7 21:56:01 39° SE 21:56:58 54° ENE 22:00:26 10° N
ISS -1.3 21:54:21 10° W 21:57:17 31° NNW 22:00:15 10° NE
Terra 3.6 21:56:47 16° E 21:57:57 17° ENE 22:00:57 10° NNE
Atlas Centaur 2 3.0 21:56:03 10° SW 21:57:58 15° SSW 21:57:58 15° SSW
Cosmos 1408 3.3 21:55:43 10° SSW 21:59:17 52° W 22:02:51 10° N
Cosmos 1782 Rocket 3.7 21:54:56 10° S 21:59:22 77° W 22:03:52 10° N
SPOT 1/Viking Rocket 3.9 21:57:08 28° SE 21:59:35 50° ENE 22:04:37 10° N
Meteor 2-13 Rocket 4.4 21:55:53 10° S 22:02:02 80° E 22:08:13 10° N
Nadezhda 3 Rocket 4.4 21:57:28 10° NNW 22:03:46 65° W 22:09:52 11° S
Cosmos 2218 Rocket 4.2 22:00:20 22° SSE 22:04:25 55° E 22:10:37 10° NNE
Cosmos 1238 Rocket 3.2 22:01:46 10° NNW 22:05:05 55° W 22:07:25 22° SSW
SPOT 5 3.2 22:04:31 21° S 22:08:05 76° WSW 22:13:29 10° NNW
Cosmos 1825 3.6 22:06:50 10° SSW 22:10:23 37° W 22:13:58 10° N
Cosmos 1833 Rocket 3.3 22:10:14 10° N 22:15:34 42° ENE 22:17:28 32° ESE
Cosmos 1975 Rocket 3.4 22:11:33 10° NNW 22:15:50 62° W 22:18:01 27° SSW
MetOp-A 4.2 22:13:07 26° S 22:16:15 76° WSW 22:21:38 10° NNW
Cosmos 1959 Rocket 4.4 22:13:55 25° S 22:17:38 70° E 22:23:42 10° NNE
DNEPR-1 R/B 3.7 22:12:29 10° NNW 22:17:45 86° WSW 22:19:11 45° SSE
Cosmos 2278 Rocket 3.3 22:12:28 10° SW 22:17:52 45° WNW 22:23:20 10° N
Cosmos 1850 Rocket 4.0 22:12:45 10° NNW 22:18:06 85° ENE 22:20:15 38° SSE
UNK 4.4 22:12:02 10° NNE 22:18:15 88° WNW 22:23:43 12° SSW
Cosmos 1727 Rocket 4.3 22:14:20 10° N 22:20:19 49° E 22:22:23 36° SE
Lacrosse 5 4.0 22:25:04 12° ENE 22:25:04 12° ENE 22:25:34 10° ENE
Cosmos 1536 Rocket 3.7 22:24:22 10° N 22:28:46 53° E 22:29:10 51° ESE
USA 229 DEB 3.9 22:23:27 10° NNW 22:30:32 65° NE 22:33:32 36° ESE
USA 229 3.9 22:23:33 10° NNW 22:30:38 64° NE 22:33:38 36° ESE
Meteor 1-18 Rocket 4.3 22:31:04 10° N 22:36:59 68° E 22:38:40 47° SE
BREEZE-M DEB (TANK) 2.6 22:28:01 10° NW 22:37:38 83° SW 22:38:18 62° SE
ASTEX 1 4.5 22:34:24 10° NNE 22:38:12 30° ENE 22:38:12 30° ENE
Cosmos 1741 Rocket 4.2 22:33:54 10° NNW 22:39:04 63° WSW 22:40:44 41° SSW
Cosmos 2082 Rocket 2.1 22:33:33 10° NNW 22:39:17 85° ENE 22:40:49 51° SSE
SL-8 Rocket 4.3 22:34:24 16° SSW 22:39:31 65° W 22:45:44 10° N
Cosmos 1812 3.6 22:36:22 10° N 22:39:21 38° NE 22:39:21 38° NE
Meteor 1-14 Rocket 4.5 22:36:23 20° SSW 22:40:20 67° W 22:45:55 10° N
GPS 2-05 Rocket1 4.4 22:38:26 10° W 22:40:33 30° WSW 22:40:33 30° WSW
USA 245 3.7 22:42:27 46° WSW 22:42:35 47° W 22:46:27 10° NNW
Cosmos 1331 Rocket 3.9 22:43:57 58° ESE 22:44:11 59° ESE 22:49:15 10° NNE
Timation 2 Rocket 4.4 22:41:12 10° NW 22:46:59 51° WSW 22:49:13 34° SSW
DMSP B5D2-2 4.2 22:42:50 10° NNE 22:47:56 53° E 22:48:00 53° ESE
Cosmos 1110 Rocket 3.8 22:50:53 60° S 22:51:50 81° ESE 22:57:03 10° NNE
IGS 5A 4.0 22:54:28 48° NE 22:54:28 48° NE 22:57:58 10° N
Cosmos 2151 Rocket 4.3 22:53:44 38° SW 22:55:04 52° W 22:59:31 10° N
CZ-4 R/B 4.4 22:56:41 10° N 23:01:13 54° WNW 23:02:42 37° SW
Meteor 1-11 Rocket 4.2 23:06:55 47° E 23:06:55 47° E 23:12:11 10° NNE
Cosmos 1300 Rocket 3.8 23:10:39 66° N 23:10:39 66° N 23:14:30 10° N
Okean 1 Rocket 3.5 23:15:49 60° N 23:15:49 60° N 23:19:30 10° N
CZ-4C R/B 4.3 23:17:11 44° WNW 23:17:11 44° WNW 23:20:30 10° NNW
NOSS 3-1 (C) 4.4 23:11:05 10° NNW 23:18:31 55° NE 23:21:03 41° ESE
Gbstr 26 Del rocket 3.9 23:13:57 10° NW 23:18:29 42° NNE 23:18:29 42° NNE
Landsat 7 4.3 23:19:26 49° WSW 23:19:33 49° W 23:24:11 10° NNW
Cosmos 1486 Rocket 4.1 23:14:54 10° NNW 23:20:03 67° ENE 23:20:03 67° ENE
H-2A R/B 2.3 23:22:52 58° WSW 23:23:18 60° W 23:28:34 10° NNW
Cosmos 2369 Rocket 3.2 23:26:50 33° ENE 23:26:50 33° ENE 23:30:21 10° NE
USA 234 3.1 23:20:34 10° NE 23:27:08 84° SE 23:30:12 35° SW
Okean 1-7 Rocket 4.2 23:25:19 10° N 23:28:52 55° NNW 23:28:52 55° NNW
Cosmos 1535 Rocket 4.4 23:31:27 74° SE 23:31:47 76° E 23:38:11 10° N
ISS 0.3 23:34:09 10° NNW 23:34:32 10° NNW 23:34:56 10° N
Terra 2.5 23:35:40 48° W 23:35:40 48° W 23:39:53 10° NNW
CZ-3 Stage 3 4.2 22:56:01 10° W 23:35:46 51° SSW 23:37:00 49° S
Meteor 1-19 Rocket 4.3 23:33:17 10° N 23:38:53 72° ENE 23:38:53 72° ENE
Cosmos 1302 Rocket 4.3 23:46:58 62° WNW 23:46:58 62° WNW 23:52:02 10° NNE
Meteor 2-14 Rocket 4.4 23:53:24 78° NE 23:53:24 78° NE 23:59:13 10° N
